Meridian, MS

4:18 AM CDT on October 21, 2019 (GMT -0500)
Key

Weather History for KMEI - August, 2019

Change the Weather History Date:

Thursday, August 15, 2019

  Actual Average Record
Temperature  
Mean Temperature 85 °F 80 °F  
Max Temperature 97 °F 92 °F 103 °F (1981)
Min Temperature 73 °F 69 °F 53 °F (2004)
Degree Days  
Heating Degree Days 0 0  
Month to date heating degree days 0 0  
Since 1 June heating degree days 0 0  
Since 1 July heating degree days 0 0  
Cooling Degree Days 20 15  
Month to date cooling degree days 295 239  
Year to date cooling degree days 1810 1386  
Since 1 June cooling degree days 1314 1103  
Growing Degree Days 35 (Base 50)    
Moisture  
Dew Point 70 °F    
Average Humidity 66    
Maximum Humidity 94    
Minimum Humidity 38    
Precipitation  
Precipitation 0.00 in 0.13 in 2.24 in (1930)
Month to date precipitation 3.18 2.09  
Year to date precipitation 41.76 37.06  
Sea Level Pressure  
Sea Level Pressure 29.96 in    
Wind  
Wind Speed 5 mph (North)    
Max Wind Speed 14 mph    
Max Gust Speed 17 mph    
Visibility 10 miles    
Events      
T = Trace of Precipitation, MM = Missing Value Source: NWS Daily Summary

Daily Weather History Graph

Daily Weather History Graph

Search for Another Location

Airport or City:

Astronomy

Aug. 15, 2019 Rise Set
Actual Time 6:18 AM CDT 7:39 PM CDT
Civil Twilight 5:53 AM CDT 8:05 PM CDT
Nautical Twilight 5:22 AM CDT 8:36 PM CDT
Astronomical Twilight 4:49 AM CDT 9:08 PM CDT
Moon 8:06 PM CDT (8/15) 6:16 AM CDT (8/15)
Length of Visible Light 14h 12m
Length of Day
13h 20m
Full, 100% of the Moon is Illuminated
Aug 15
Full
Aug 23
Last Quarter
Aug 30
New
Sep 5
First Quarter
Sep 13
Full

Hourly Weather History & Observations

Time (CDT) Temp. Heat Index Dew Point Humidity Pressure Visibility Wind Dir Wind Speed Gust Speed Precip Events Conditions
12:58 AM 75.9 °F - 73.0 °F 91% 29.95 in 10.0 mi Calm Calm - N/A   Clear
1:58 AM 75.9 °F - 73.0 °F 91% 29.93 in 10.0 mi Calm Calm - N/A   Clear
2:58 AM 75.9 °F - 72.0 °F 87% 29.93 in 10.0 mi Calm Calm - N/A   Clear
3:58 AM 75.9 °F - 72.0 °F 87% 29.93 in 10.0 mi North 4.6 mph - N/A   Clear
4:58 AM 75.9 °F - 72.0 °F 87% 29.94 in 10.0 mi NNW 4.6 mph - N/A   Clear
5:58 AM 75.0 °F - 71.1 °F 87% 29.96 in 10.0 mi NNW 4.6 mph - N/A   Clear
6:58 AM 75.9 °F - 71.1 °F 85% 29.97 in 10.0 mi NNW 3.5 mph - N/A   Clear
7:58 AM 80.1 °F 83.8 °F 72.0 °F 76% 29.99 in 10.0 mi North 6.9 mph - N/A   Clear
8:58 AM 82.9 °F 87.5 °F 71.1 °F 67% 29.99 in 10.0 mi NE 5.8 mph - N/A   Clear
9:58 AM 87.1 °F 92.8 °F 71.1 °F 59% 30.00 in 10.0 mi NNE 9.2 mph - N/A   Clear
10:58 AM 90.0 °F 95.4 °F 70.0 °F 52% 30.00 in 10.0 mi ENE 9.2 mph - N/A   Clear
11:58 AM 91.9 °F 98.4 °F 71.1 °F 50% 29.99 in 10.0 mi North 8.1 mph - N/A   Clear
12:58 PM 93.0 °F 97.9 °F 69.1 °F 45% 29.97 in 10.0 mi Variable 3.5 mph - N/A   Clear
1:58 PM 95.0 °F 99.5 °F 68.0 °F 41% 29.96 in 9.0 mi NE 6.9 mph - N/A   Clear
2:58 PM 96.1 °F 99.3 °F 66.0 °F 37% 29.94 in 10.0 mi ENE 6.9 mph - N/A   Clear
3:58 PM 97.0 °F 100.4 °F 66.0 °F 36% 29.91 in 10.0 mi NNW 10.4 mph - N/A   Clear
4:58 PM 95.0 °F 99.5 °F 68.0 °F 41% 29.91 in 10.0 mi NW 11.5 mph - N/A   Clear
5:58 PM 93.0 °F 96.4 °F 66.9 °F 42% 29.92 in 10.0 mi NNW 10.4 mph - N/A   Clear
6:58 PM 89.1 °F 92.9 °F 68.0 °F 50% 29.94 in 10.0 mi North 8.1 mph - N/A   Clear
7:58 PM 82.0 °F 85.9 °F 70.0 °F 67% 29.95 in 10.0 mi NNW 5.8 mph - N/A   Clear
8:58 PM 80.1 °F 83.6 °F 71.1 °F 74% 29.97 in 10.0 mi Calm Calm - N/A   Clear
9:58 PM 77.0 °F - 70.0 °F 79% 29.96 in 10.0 mi Calm Calm - N/A   Clear
10:58 PM 73.9 °F - 70.0 °F 87% 29.96 in 10.0 mi Calm Calm - N/A   Clear
11:58 PM 73.0 °F - 69.1 °F 87% 29.95 in 10.0 mi Calm Calm - N/A   Clear